Stations météo

réclame
Mon MeteoGroup
Lyon/Bron, France (7480): Température de l'air & dewpoint: 19.06.2019 14:00:00 - 25.06.2019 14:00:00 (CEST)Lyon/Bron, France (7480): Température de l'air 5cm: 19.06.2019 14:00:00 - 25.06.2019 14:00:00 (CEST)Lyon/Bron, France (7480): Température de l'air -20cm: 19.06.2019 14:00:00 - 25.06.2019 14:00:00 (CEST)Lyon/Bron, France (7480): Vitesse du vent & gusts: 19.06.2019 14:00:00 - 25.06.2019 14:00:00 (CEST)Lyon/Bron, France (7480): Direction du vent: 19.06.2019 14:00:00 - 25.06.2019 14:00:00 (CEST)Lyon/Bron, France (7480): reduced air pressure: 19.06.2019 14:00:00 - 25.06.2019 14:00:00 (CEST)Lyon/Bron, France (7480): visibility: 19.06.2019 14:00:00 - 25.06.2019 14:00:00 (CEST)Lyon/Bron, France (7480): Ensoleillement: 19.06.2019 14:00:00 - 25.06.2019 14:00:00 (CEST)Lyon/Bron, France (7480): Quantités de précipitations: 19.06.2019 14:00:00 - 25.06.2019 14:00:00 (CEST)
Date & Time tt [°C] td [°C] tt 5cm [°C] tt -20cm [°C] ff [km/h] ff [knt] fx [km/h] fx [knt] dd ppp [hPa] vv [km] sd [min] rr [mm]
25.06.2019 14:00:00 - - - - - - - - - - - - -
25.06.2019 13:00:00 31,6 16,0 33,1 23,1 15 8 31 17 SE 1017,6 35 36 0,0
25.06.2019 12:00:00 30,5 15,4 33,1 23,0 19 11 42 23 SSE 1017,7 36 60 0,0
25.06.2019 11:00:00 29,4 14,0 32,7 22,9 20 11 35 19 SSE 1017,8 43 60 0,0
25.06.2019 10:00:00 27,9 13,8 30,8 23,0 13 7 25 13 SSE 1018,1 55 57 0,0
25.06.2019 09:00:00 25,9 13,4 27,5 23,1 11 6 23 12 SSE 1018,1 60 60 0,0
25.06.2019 08:00:00 24,6 12,5 21,0 23,2 4 2 11 6 ESE 1018,0 41 47 0,0
25.06.2019 07:00:00 22,1 12,1 16,3 23,4 0 0 6 3 N 1017,8 22 25 0,0
25.06.2019 06:00:00 21,6 11,9 18,3 23,6 7 4 16 9 SSE 1017,4 41 0 0,0
25.06.2019 05:00:00 22,5 11,2 17,1 23,7 4 2 10 6 SSE 1016,7 41 0 0,0
25.06.2019 04:00:00 22,7 11,7 17,7 23,9 4 2 21 11 WSW 1016,6 41 0 0,0
25.06.2019 03:00:00 24,1 11,8 19,3 24,0 12 7 26 14 SSE 1016,2 38 0 0,0
25.06.2019 02:00:00 24,3 13,2 20,7 24,2 8 4 18 10 SSE 1016,3 34 0 0,0
25.06.2019 01:00:00 25,2 13,7 23,1 24,3 9 5 27 15 SE 1016,2 33 0 0,0
25.06.2019 00:00:00 25,5 14,3 23,7 24,4 14 7 24 13 S 1015,9 33 0 0,0
24.06.2019 23:00:00 26,0 14,5 24,1 24,4 13 7 21 11 SSE 1015,7 34 0 0,0
24.06.2019 22:00:00 27,4 15,1 25,1 24,5 11 6 18 10 SSE 1015,1 31 0 0,0
24.06.2019 21:00:00 28,8 16,0 27,5 24,4 10 6 17 9 SE 1014,5 32 17 0,0
24.06.2019 20:00:00 30,1 15,8 28,7 24,3 10 6 26 14 SSE 1014,3 37 15 0,0
24.06.2019 19:00:00 31,8 16,9 31,4 24,2 14 8 24 13 SE 1014,0 27 19 0,0
24.06.2019 18:00:00 31,5 16,7 31,9 24,0 12 6 29 16 SSE 1014,2 30 16 0,0
24.06.2019 17:00:00 32,3 14,4 34,4 23,7 18 10 33 18 SSE 1014,0 37 52 0,0
24.06.2019 16:00:00 32,0 15,5 33,7 23,4 14 8 32 17 SE 1014,2 37 29 0,0
24.06.2019 15:00:00 31,0 14,6 32,3 23,1 18 10 35 19 SSE 1014,7 33 11 0,0
24.06.2019 14:00:00 31,1 14,7 35,1 22,7 21 12 37 20 S 1014,9 23 60 0,0
24.06.2019 13:00:00 29,6 14,6 34,0 22,5 18 10 32 17 S 1015,5 25 60 0,0
24.06.2019 12:00:00 28,3 16,9 32,4 22,4 17 9 28 15 S 1015,9 27 60 0,0
24.06.2019 11:00:00 26,6 16,8 30,9 22,4 14 8 25 14 S 1016,1 20 60 0,0
24.06.2019 10:00:00 24,7 15,9 29,5 22,4 11 6 20 11 S 1016,3 32 60 0,0
24.06.2019 09:00:00 22,7 16,0 25,5 22,6 8 4 12 6 SSW 1016,6 41 60 0,0
24.06.2019 08:00:00 20,4 16,0 17,2 22,7 8 4 11 6 SSW 1016,5 18 60 0,0
24.06.2019 07:00:00 17,8 15,4 13,6 22,9 3 2 6 3 S 1016,7 15 21 0,0
24.06.2019 06:00:00 16,5 14,5 13,4 23,1 3 1 7 4 SSE 1016,8 20 0 0,0
24.06.2019 05:00:00 17,0 14,8 14,0 23,3 5 3 8 4 S 1016,8 24 0 0,0
24.06.2019 04:00:00 17,4 14,7 14,2 23,5 0 0 5 3 N 1016,7 32 0 0,0
24.06.2019 03:00:00 18,6 14,9 15,1 23,7 0 0 7 4 N 1016,8 50 0 0,0
24.06.2019 02:00:00 19,3 15,0 15,8 23,9 6 3 9 5 SSW 1016,5 43 0 0,0
24.06.2019 01:00:00 20,0 15,0 16,6 24,0 2 1 8 5 SSE 1016,4 37 0 0,0
24.06.2019 00:00:00 21,2 15,7 17,2 24,2 4 2 7 4 SW 1016,1 37 0 0,0
23.06.2019 23:00:00 22,5 15,1 18,0 24,2 3 2 10 5 SE 1015,5 43 0 0,0
23.06.2019 22:00:00 24,4 15,3 20,4 24,3 7 4 10 5 SE 1014,7 20 0 0,0
23.06.2019 21:00:00 27,7 14,7 25,7 24,2 4 2 8 4 SSE 1013,9 54 46 0,0
23.06.2019 20:00:00 28,6 13,3 27,6 24,1 5 3 12 6 S 1013,8 51 27 0,0
23.06.2019 19:00:00 28,3 13,8 28,1 23,9 6 4 14 7 S 1013,4 42 0 0,0
23.06.2019 18:00:00 29,0 12,8 29,3 23,6 10 5 16 9 S 1013,3 51 6 0,0
23.06.2019 17:00:00 29,8 14,0 33,1 23,2 8 4 19 10 S 1013,4 36 42 0,0
23.06.2019 16:00:00 29,1 14,5 34,1 22,8 9 5 21 11 SW 1013,6 54 60 0,0
23.06.2019 15:00:00 28,5 14,7 34,2 22,4 5 3 18 10 SW 1014,0 39 60 0,0
23.06.2019 14:00:00 27,0 15,1 33,9 22,0 4 2 18 10 S 1014,4 36 60 0,0
23.06.2019 13:00:00 26,0 16,3 33,0 21,7 6 4 14 8 E 1014,5 19 60 0,0
23.06.2019 12:00:00 24,6 15,8 31,2 21,6 4 2 14 8 NNE 1014,8 33 60 0,0
23.06.2019 11:00:00 23,1 15,2 29,6 21,6 5 3 11 6 N 1015,1 36 60 0,0
23.06.2019 10:00:00 21,4 15,0 26,3 21,7 4 2 13 7 NNW 1015,4 34 60 0,0
23.06.2019 09:00:00 19,8 14,8 23,1 21,8 5 3 13 7 N 1015,8 33 60 0,0
23.06.2019 08:00:00 18,1 14,8 14,5 22,0 3 1 5 3 NE 1016,1 18 60 0,0
23.06.2019 07:00:00 15,5 14,7 12,5 22,2 0 0 4 2 N 1016,3 15 40 0,0
23.06.2019 06:00:00 15,1 13,8 12,0 22,4 3 2 6 3 SE 1016,2 14 0 0,0
23.06.2019 05:00:00 15,2 13,7 12,1 22,6 2 1 5 3 WNW 1016,2 20 0 0,0
23.06.2019 04:00:00 16,2 14,6 12,8 22,8 4 2 6 4 N 1015,9 26 0 0,0
23.06.2019 03:00:00 16,4 14,4 13,3 23,0 0 0 4 2 N 1015,9 24 0 0,0
23.06.2019 02:00:00 17,4 14,5 14,4 23,1 5 3 8 4 NNW 1016,2 42 0 0,0
23.06.2019 01:00:00 17,9 14,2 15,1 23,3 8 4 11 6 NNW 1016,4 53 0 0,0
23.06.2019 00:00:00 18,8 14,9 16,6 23,4 8 4 11 6 NNW 1016,6 46 0 0,0
22.06.2019 23:00:00 19,7 14,9 18,0 23,5 9 5 15 8 N 1016,3 49 0 0,0
22.06.2019 22:00:00 20,8 14,9 19,0 23,5 10 5 17 9 N 1015,8 58 0 0,0
22.06.2019 21:00:00 22,5 14,6 22,7 23,5 11 6 22 12 N 1015,3 50 43 0,0
22.06.2019 20:00:00 23,4 14,4 25,9 23,4 13 7 23 12 N 1014,8 54 57 0,0
22.06.2019 19:00:00 24,0 14,7 25,2 23,2 15 8 29 16 N 1014,6 44 40 0,0
22.06.2019 18:00:00 25,2 14,6 28,1 22,9 16 9 27 15 N 1014,6 60 53 0,0
22.06.2019 17:00:00 24,9 15,0 26,8 22,6 14 8 27 15 N 1015,0 40 22 0,0
22.06.2019 16:00:00 24,5 14,9 28,4 22,2 8 5 20 11 NNE 1015,2 50 45 0,0
22.06.2019 15:00:00 24,3 14,7 27,1 21,8 8 4 20 11 N 1015,6 57 28 0,0
22.06.2019 14:00:00 23,6 13,2 30,3 21,5 5 3 16 9 NE 1016,1 60 42 0,0
22.06.2019 13:00:00 23,5 13,9 29,0 21,3 8 4 14 8 NE 1016,3 20 53 0,0
22.06.2019 12:00:00 21,5 14,4 24,9 21,1 3 2 14 8 W 1016,6 20 49 0,0
22.06.2019 11:00:00 20,3 14,2 24,0 21,1 8 4 28 15 WSW 1016,6 51 34 0,0
22.06.2019 10:00:00 19,4 13,8 21,7 21,1 9 5 16 9 NE 1016,9 49 46 0,0
22.06.2019 09:00:00 18,1 13,4 19,9 21,2 10 5 16 9 N 1017,2 57 56 0,0
22.06.2019 08:00:00 16,7 13,4 15,4 21,4 13 7 18 10 NNE 1017,2 39 20 0,0
22.06.2019 07:00:00 15,4 13,1 14,4 21,5 5 3 19 10 NNE 1017,2 44 0 0,0
22.06.2019 06:00:00 15,5 13,2 14,4 21,6 8 4 18 10 NNE 1017,2 46 0 0,0
22.06.2019 05:00:00 15,9 13,4 13,5 21,8 12 6 16 9 NNW 1016,9 51 0 0,0
22.06.2019 04:00:00 15,4 13,8 13,6 22,0 5 3 8 5 NW 1016,9 43 0 0,0
22.06.2019 03:00:00 16,0 14,4 14,5 22,2 4 2 20 11 SW 1016,7 42 0 0,0
22.06.2019 02:00:00 16,2 14,7 14,8 22,3 13 7 35 19 NW 1016,7 15 0 4,1
22.06.2019 01:00:00 19,7 15,3 17,1 22,4 18 10 32 17 WNW 1016,7 26 0 0,2
22.06.2019 00:00:00 20,4 15,2 19,1 22,4 11 6 17 9 NW 1015,9 50 0 0,0
21.06.2019 23:00:00 20,7 15,3 18,9 22,5 9 5 15 8 NNW 1016,0 52 0 0,0
21.06.2019 22:00:00 21,3 15,2 20,1 22,6 8 5 14 7 N 1015,9 50 0 0,0
21.06.2019 21:00:00 22,2 15,8 21,3 22,5 10 6 21 11 N 1015,4 60 4 0,0
21.06.2019 20:00:00 22,8 16,1 22,5 22,5 11 6 19 10 N 1015,2 55 6 0,0
21.06.2019 19:00:00 22,7 16,0 23,8 22,5 11 6 20 11 NNE 1015,2 55 26 0,0
21.06.2019 18:00:00 21,8 17,2 18,7 22,4 11 6 21 12 NW 1015,0 48 5 0,8
21.06.2019 17:00:00 20,6 16,0 18,0 22,3 8 5 27 15 WNW 1016,4 11 0 0,6
21.06.2019 16:00:00 22,7 14,3 22,5 22,2 19 10 29 16 NNW 1015,8 36 0 0,0
21.06.2019 15:00:00 23,9 14,6 26,8 22,0 18 10 28 15 N 1015,7 40 0 0,0
21.06.2019 14:00:00 24,0 15,2 28,3 21,8 16 9 29 15 N 1015,9 37 24 0,0
21.06.2019 13:00:00 23,5 15,3 25,2 21,7 16 9 25 13 N 1016,0 48 2 0,0
21.06.2019 12:00:00 22,6 15,4 25,2 21,6 15 8 26 14 N 1016,1 43 22 0,0
21.06.2019 11:00:00 22,3 15,2 25,2 21,6 10 6 21 12 N 1016,2 55 36 0,0
21.06.2019 10:00:00 20,7 14,8 23,3 21,7 10 5 19 11 N 1016,1 47 39 0,0
21.06.2019 09:00:00 19,8 14,4 20,4 21,8 12 6 18 10 N 1016,2 32 25 0,0
21.06.2019 08:00:00 18,3 13,8 16,6 21,9 9 5 24 13 N 1016,3 47 38 0,0
21.06.2019 07:00:00 17,4 13,7 16,4 22,1 11 6 20 11 NNW 1016,0 55 0 0,0
21.06.2019 06:00:00 17,5 13,6 16,2 22,3 11 6 22 12 NNW 1015,7 60 0 0,0
21.06.2019 05:00:00 17,6 13,9 15,7 22,4 8 4 12 7 N 1015,2 60 0 0,0
21.06.2019 04:00:00 18,4 13,9 16,9 22,5 4 2 14 7 NE 1015,9 60 0 0,0
21.06.2019 03:00:00 19,0 14,0 18,1 22,7 8 5 15 8 N 1015,8 57 0 0,0
21.06.2019 02:00:00 19,6 14,4 18,0 22,8 11 6 17 9 NNW 1016,0 58 0 0,0
21.06.2019 01:00:00 19,7 14,5 18,2 23,0 9 5 14 8 NW 1015,9 52 0 0,0
21.06.2019 00:00:00 20,4 15,0 18,3 23,1 9 5 16 9 N 1015,5 59 0 0,0
20.06.2019 23:00:00 20,7 14,8 19,2 23,2 8 4 13 7 NNW 1015,5 52 0 0,0
20.06.2019 22:00:00 20,8 14,7 19,5 23,2 7 4 15 8 N 1015,0 53 0 0,0
20.06.2019 21:00:00 21,5 15,1 20,9 23,2 10 5 21 11 N 1014,7 49 0 0,0
20.06.2019 20:00:00 22,4 15,0 22,8 23,1 18 10 26 14 NNW 1014,3 33 11 0,0
20.06.2019 19:00:00 23,9 15,4 25,7 23,0 5 3 11 6 NNW 1013,9 54 13 0,0
20.06.2019 18:00:00 23,7 16,2 20,4 22,8 6 4 16 9 N 1014,0 18 12 1,2
20.06.2019 17:00:00 24,9 13,8 25,4 22,5 9 5 18 10 NW 1014,1 54 7 0,0
20.06.2019 16:00:00 25,1 15,1 29,2 22,3 6 3 22 12 NE 1013,9 60 54 0,0
20.06.2019 15:00:00 23,8 16,8 25,3 22,1 14 7 26 14 N 1014,2 37 10 0,0
20.06.2019 14:00:00 24,1 15,8 23,3 21,9 11 6 22 12 N 1014,5 41 21 0,0
20.06.2019 13:00:00 23,4 15,7 25,5 21,6 9 5 21 11 N 1014,7 28 19 0,0
20.06.2019 12:00:00 23,9 14,9 31,0 21,5 9 5 24 13 NNE 1014,6 45 60 0,0
20.06.2019 11:00:00 22,9 15,0 24,1 21,5 12 7 21 11 NNE 1014,8 20 57 0,0
20.06.2019 10:00:00 21,5 16,2 20,6 21,5 11 6 19 10 E 1014,8 38 25 0,0
20.06.2019 09:00:00 19,7 15,8 19,4 21,6 9 5 14 7 E 1015,2 33 0 0,0
20.06.2019 08:00:00 19,0 15,7 18,0 21,7 7 4 14 8 NNE 1014,5 34 0 0,0
20.06.2019 07:00:00 18,9 16,7 17,3 21,8 7 4 18 10 NNE 1014,2 19 0 0,0
20.06.2019 06:00:00 18,8 15,5 16,6 21,9 6 3 10 5 N 1013,9 37 0 0,0
20.06.2019 05:00:00 18,6 15,1 15,7 22,1 2 1 6 3 SSE 1013,7 38 0 0,0
20.06.2019 04:00:00 19,6 15,0 18,3 22,2 5 3 13 7 NNE 1013,4 50 0 0,0
20.06.2019 03:00:00 20,5 15,9 19,7 22,3 10 5 18 10 N 1013,7 44 0 0,0
20.06.2019 02:00:00 21,5 16,0 19,6 22,4 10 5 16 8 N 1013,9 44 0 0,0
20.06.2019 01:00:00 21,6 16,1 19,9 22,5 6 3 13 7 N 1013,4 44 0 0,0
20.06.2019 00:00:00 22,3 15,9 19,3 22,6 8 5 11 6 N 1013,4 48 0 0,0
19.06.2019 23:00:00 22,5 15,1 19,5 22,6 7 4 13 7 NE 1012,6 51 0 0,0
19.06.2019 22:00:00 24,4 14,8 22,6 22,6 10 5 22 12 NNW 1011,9 50 0 0,0
19.06.2019 21:00:00 26,7 10,4 25,1 22,6 10 6 24 13 SSW 1010,7 48 51 0,0
19.06.2019 20:00:00 27,8 10,0 27,7 22,6 17 9 36 19 SSW 1010,0 40 30 0,0
19.06.2019 19:00:00 28,3 6,4 28,5 22,4 25 14 49 26 S 1009,5 26 4 0,0
19.06.2019 18:00:00 28,9 6,9 29,2 22,2 32 17 52 28 S 1008,9 17 29 0,0
19.06.2019 17:00:00 30,1 6,7 33,0 21,9 37 20 62 34 S 1008,8 14 60 0,0
19.06.2019 16:00:00 29,7 8,7 33,1 21,6 32 17 54 29 S 1009,2 13 60 0,0
19.06.2019 15:00:00 29,6 9,2 32,4 21,3 30 16 65 35 S 1009,6 13 60 0,0
19.06.2019 14:00:00 28,9 6,9 31,8 21,0 26 14 61 33 S 1010,3 14 60 0,0

tt = Température de l'air
td = dewpoint
tt 5cm = Température de l'air 5cm
tt -20cm = Température de l'air -20cm
ff = Vitesse du vent
fx = gusts
dd = Direction du vent
ppp = reduced air pressure
vv = visibility
sd = Ensoleillement
rr = Quantités de précipitations

stations d'obs. à proximité